CEB370 RPLC-VMMC

Flight info

Callsign CEB370
Flight time N/A
Altitude 38000
Route MALIB1A MALIB DCT AVMUP DCT CHALI
Aircraft A339/H-SADE1E2E3GHIJ3J5M1P2RWXY/LB2D1

Departure

Time N/A
Airport Clark International Airport / Clark Air Base (RPLC)

Arrival

Time 2026-04-25 19:00
Airport Macau International Airport (VMMC)
Time Latitude Longitude Altitude Speed Heading
2026-04-25 18:26 20.02240 115.73052 37949 ft 415 kts 297°
2026-04-25 18:27 20.05368 115.67939 37957 ft 415 kts 297°
2026-04-25 18:27 20.08512 115.62796 37962 ft 414 kts 297°
2026-04-25 18:28 20.11650 115.57657 37964 ft 414 kts 297°
2026-04-25 18:28 20.14792 115.52507 37961 ft 414 kts 297°
2026-04-25 18:29 20.19466 115.44839 37965 ft 413 kts 297°
2026-04-25 18:30 20.25713 115.34575 37963 ft 412 kts 297°
2026-04-25 18:30 20.28306 115.30309 37963 ft 412 kts 297°
2026-04-25 18:31 20.31418 115.25185 37960 ft 411 kts 297°
2026-04-25 18:31 20.34508 115.20092 37963 ft 411 kts 298°
2026-04-25 18:32 20.37607 115.14980 37961 ft 410 kts 298°
2026-04-25 18:32 20.40704 115.09866 37962 ft 410 kts 298°
2026-04-25 18:33 20.43801 115.04749 37957 ft 409 kts 298°
2026-04-25 18:33 20.46871 114.99671 37960 ft 409 kts 298°
2026-04-25 18:34 20.49962 114.94556 37960 ft 409 kts 298°
2026-04-25 18:34 20.53042 114.89452 37958 ft 408 kts 298°
2026-04-25 18:35 20.54573 114.86916 37722 ft 405 kts 298°
2026-04-25 18:35 20.56080 114.84415 37176 ft 405 kts 298°
2026-04-25 18:35 20.57606 114.81882 36438 ft 408 kts 298°
2026-04-25 18:35 20.59146 114.79321 35663 ft 410 kts 298°
2026-04-25 18:36 20.60693 114.76748 34835 ft 412 kts 298°
2026-04-25 18:36 20.62249 114.74161 33995 ft 416 kts 298°
2026-04-25 18:36 20.63817 114.71551 32993 ft 419 kts 299°
2026-04-25 18:36 20.65384 114.68942 32095 ft 423 kts 299°
2026-04-25 18:37 20.66982 114.66281 31452 ft 429 kts 299°
2026-04-25 18:37 20.68602 114.63583 31098 ft 432 kts 299°
2026-04-25 18:37 20.70224 114.60885 30853 ft 431 kts 299°
2026-04-25 18:37 20.71843 114.58191 30620 ft 430 kts 300°
2026-04-25 18:38 20.73459 114.55498 30394 ft 430 kts 300°
2026-04-25 18:38 20.75072 114.52809 30163 ft 429 kts 300°
2026-04-25 18:38 20.76679 114.50128 29899 ft 428 kts 300°
2026-04-25 18:38 20.78265 114.47481 29315 ft 428 kts 300°
2026-04-25 18:39 20.79865 114.44809 28705 ft 425 kts 300°
2026-04-25 18:39 20.81457 114.42150 28116 ft 421 kts 300°
2026-04-25 18:39 20.83025 114.39529 27528 ft 415 kts 300°
2026-04-25 18:39 20.84572 114.36942 26947 ft 410 kts 300°
2026-04-25 18:40 20.86103 114.34381 26385 ft 405 kts 300°
2026-04-25 18:40 20.87595 114.31882 25790 ft 402 kts 300°
2026-04-25 18:40 20.89090 114.29377 25278 ft 397 kts 300°
2026-04-25 18:40 20.90573 114.26890 24706 ft 394 kts 301°
2026-04-25 18:41 20.92038 114.24435 24144 ft 391 kts 301°
2026-04-25 18:41 20.93493 114.21995 23578 ft 388 kts 301°
2026-04-25 18:41 20.94932 114.19580 23063 ft 382 kts 301°
2026-04-25 18:41 20.96351 114.17198 22531 ft 376 kts 301°
2026-04-25 18:42 20.97748 114.14853 22009 ft 370 kts 301°
2026-04-25 18:42 20.98660 114.13320 21666 ft 366 kts 301°
2026-04-25 18:42 21.00488 114.10248 21020 ft 372 kts 301°
2026-04-25 18:42 21.01899 114.07872 20763 ft 391 kts 301°
2026-04-25 18:43 21.03359 114.05416 20516 ft 390 kts 301°
2026-04-25 18:43 21.04814 114.02968 19961 ft 390 kts 302°
2026-04-25 18:43 21.06269 114.00519 19402 ft 388 kts 302°
2026-04-25 18:43 21.07710 113.98094 18939 ft 380 kts 302°
2026-04-25 18:44 21.09120 113.95719 18639 ft 376 kts 302°
2026-04-25 18:44 21.10534 113.93336 18028 ft 379 kts 302°
2026-04-25 18:44 21.11926 113.90987 17442 ft 375 kts 302°
2026-04-25 18:44 21.13311 113.88651 16769 ft 370 kts 302°
2026-04-25 18:45 21.14849 113.86451 15925 ft 370 kts 315°
2026-04-25 18:45 21.16896 113.84785 14980 ft 371 kts 330°
2026-04-25 18:45 21.19344 113.83779 13845 ft 382 kts 347°
2026-04-25 18:45 21.21933 113.83424 13129 ft 376 kts 355°
2026-04-25 18:46 21.24508 113.83254 12707 ft 362 kts 356°
2026-04-25 18:46 21.26982 113.83064 12230 ft 351 kts 355°
2026-04-25 18:46 21.29390 113.82811 11713 ft 343 kts 353°
2026-04-25 18:46 21.31736 113.82511 11183 ft 336 kts 353°
2026-04-25 18:47 21.34030 113.82188 10669 ft 329 kts 352°
2026-04-25 18:47 21.36269 113.81861 10377 ft 316 kts 352°
2026-04-25 18:47 21.38390 113.81548 10203 ft 299 kts 352°
2026-04-25 18:47 21.40426 113.81247 9843 ft 291 kts 352°
2026-04-25 18:48 21.42392 113.80958 9667 ft 285 kts 352°
2026-04-25 18:48 21.44365 113.80670 9542 ft 292 kts 352°
2026-04-25 18:48 21.46373 113.80378 9418 ft 290 kts 352°
2026-04-25 18:48 21.48372 113.80086 9169 ft 290 kts 352°
2026-04-25 18:49 21.50363 113.79794 8794 ft 287 kts 352°
2026-04-25 18:49 21.52316 113.79508 8422 ft 279 kts 352°
2026-04-25 18:49 21.54212 113.79230 8064 ft 270 kts 352°
2026-04-25 18:49 21.56048 113.78962 7711 ft 262 kts 352°
2026-04-25 18:50 21.57235 113.78788 7479 ft 262 kts 352°
2026-04-25 18:50 21.59870 113.78401 6980 ft 302 kts 352°
2026-04-25 18:50 21.61944 113.78097 6920 ft 297 kts 352°
2026-04-25 18:50 21.63963 113.77802 6820 ft 286 kts 352°
2026-04-25 18:51 21.65878 113.77493 6400 ft 280 kts 347°
2026-04-25 18:51 21.67143 113.77119 6010 ft 278 kts 340°
2026-04-25 18:51 21.69543 113.76174 5303 ft 274 kts 339°
2026-04-25 18:51 21.71333 113.75480 5161 ft 277 kts 340°
2026-04-25 18:52 21.73159 113.74779 5009 ft 278 kts 340°
2026-04-25 18:52 21.74975 113.74089 4801 ft 276 kts 340°
2026-04-25 18:52 21.76790 113.73401 4586 ft 275 kts 340°
2026-04-25 18:52 21.78595 113.72719 4380 ft 275 kts 340°
2026-04-25 18:53 21.80375 113.72044 4169 ft 274 kts 340°
2026-04-25 18:53 21.82173 113.71362 3956 ft 274 kts 341°
2026-04-25 18:53 21.83976 113.70679 3746 ft 273 kts 341°
2026-04-25 18:53 21.85768 113.70001 3558 ft 269 kts 341°
2026-04-25 18:54 21.89100 113.68749 3313 ft 241 kts 342°
2026-04-25 18:54 21.90673 113.68172 3076 ft 233 kts 342°
2026-04-25 18:54 21.92213 113.67610 3021 ft 236 kts 342°
2026-04-25 18:55 21.93733 113.67061 3022 ft 221 kts 342°
2026-04-25 18:55 21.95145 113.66550 3011 ft 206 kts 342°
2026-04-25 18:55 21.96446 113.66068 3019 ft 191 kts 341°
2026-04-25 18:55 21.97691 113.65556 3019 ft 190 kts 340°
2026-04-25 18:56 21.98885 113.65077 3006 ft 183 kts 341°
2026-04-25 18:56 22.00098 113.64616 2818 ft 186 kts 342°
2026-04-25 18:56 22.01313 113.64168 2572 ft 181 kts 343°
2026-04-25 18:56 22.02480 113.63736 2332 ft 171 kts 343°
2026-04-25 18:57 22.03556 113.63336 2110 ft 155 kts 344°
2026-04-25 18:57 22.04579 113.62963 1925 ft 159 kts 345°
2026-04-25 18:57 22.05592 113.62587 1717 ft 151 kts 344°
2026-04-25 18:57 22.05920 113.62467 1665 ft 154 kts 345°
2026-04-25 18:58 22.07594 113.61849 1329 ft 154 kts 345°
2026-04-25 18:58 22.09611 113.61105 921 ft 154 kts 345°
2026-04-25 18:58 22.10588 113.60742 722 ft 150 kts 345°
2026-04-25 18:59 22.12567 113.59999 348 ft 154 kts 343°
2026-04-25 18:59 22.14564 113.59283 34 ft 142 kts 342°
2026-04-25 19:00 22.15699 113.58865 33 ft 27 kts 342°
2026-04-25 19:00 22.15874 113.58802 34 ft 25 kts 341°
2026-04-25 19:01 22.16182 113.58680 35 ft 14 kts 322°
2026-04-25 19:01 22.16211 113.58582 35 ft 14 kts 279°
2026-04-25 19:01 22.16228 113.58489 34 ft 11 kts 282°
2026-04-25 19:01 22.16245 113.58400 34 ft 13 kts 282°
2026-04-25 19:02 22.16225 113.58193 34 ft 14 kts 250°
2026-04-25 19:02 22.16191 113.58091 34 ft 15 kts 250°
2026-04-25 19:02 22.16156 113.57983 34 ft 14 kts 251°
2026-04-25 19:03 22.16116 113.57856 34 ft 13 kts 250°
2026-04-25 19:03 22.16027 113.57747 34 ft 12 kts 195°
2026-04-25 19:03 22.15940 113.57722 34 ft 14 kts 195°
2026-04-25 19:04 22.15770 113.57672 34 ft 9 kts 199°
2026-04-25 19:04 22.15707 113.57641 34 ft 11 kts 208°
2026-04-25 19:05 22.15591 113.57528 33 ft 8 kts 244°
2026-04-25 19:05 22.15632 113.57487 34 ft 3 kts 342°
2026-04-25 19:05 22.15647 113.57476 34 ft 0 kts 328°
2026-04-25 19:06 22.15649 113.57475 34 ft 0 kts 327°